Regional Weather Roundup
Issued by NWS Upton, NY

Current Version | Previous Version | Graphics & Text | Print | Product List | Glossary Off
Versions: 1 2 3 4 5 6 7 8 9 10 11 12 13 14 15 16 17 18 19 20 21 22 23 24 25 26 27 28 29 30 31 32 33 34 35 36 37 38 39 40 41 42 43 44

000
ASUS41 KOKX 261805
RWROKX

REGIONAL WEATHER ROUNDUP
NATIONAL WEATHER SERVICE NEW YORK NY
100 PM EST FRI DEC 26 2014

NOTE: "FAIR" INDICATES FEW OR NO CLOUDS BELOW 12,000 FEET WITH NO
SIGNIFICANT WEATHER AND/OR OBSTRUCTIONS TO VISIBILITY.

NYZ071-072-176-178-NJZ106-104-261900-
NEW YORK CITY METRO AREA


CITY           SKY/WX    TMP DP  RH WIND       PRES   REMARKS
CENTRAL PARK   FAIR      49  27  42 NW6       30.23F
LAGUARDIA APRT FAIR      48  28  46 NW13      30.20F
KENNEDY INTL   FAIR      50  28  42 W10       30.22F
NEWARK/LIBERTY FAIR      49  28  44 W8        30.21F
BRNX BOT. GARD   N/A    N/A N/A N/A W12       30.20F
TETERBORO      FAIR      46  29  51 W9        30.20F
$$

NYZ177-179-078>081-261900-
LONG ISLAND NEW YORK

CITY           SKY/WX    TMP DP  RH WIND       PRES   REMARKS
FARMINGDALE    FAIR      48  29  47 NW9       30.20F
ISLIP          FAIR      49  30  48 W8        30.18F
SHIRLEY        FAIR      48  31  51 NW5       30.19F
WESTHAMPTON    FAIR      48  31  51 NW10      30.20F
MONTAUK POINT    N/A     47  34  60 W9        30.19F
$$

NYZ052-065-067-261900-
HUDSON VALLEY

CITY           SKY/WX    TMP DP  RH WIND       PRES   REMARKS
WHITE PLAINS   FAIR      47  28  47 NW10      30.18F
NEWBURGH       SUNNY     41  30  65 W12       30.19F
MONTGOMERY     FAIR      48  28  46 CALM      30.17F
POUGHKEEPSIE   FAIR      49  29  46 VRB3      30.18F
ALBANY         FAIR      47  29  49 NW14      30.19F
$$

NJZ001-105-106-008-010-013-015-019>022-104-261900-
NEW JERSEY

CITY           SKY/WX    TMP DP  RH WIND       PRES   REMARKS
NEWARK/LIBERTY FAIR      49  28  44 W8        30.21F
TETERBORO      FAIR      46  29  51 W9        30.20F
CALDWELL       FAIR      48  28  46 W8        30.20F
MORRISTOWN     SUNNY     50  32  50 NW6       30.21F
SOMERVILLE     FAIR      49  29  46 CALM      30.20F
SUSSEX         FAIR      47  28  47 MISG      30.19F
ANDOVER        NOT AVBL
TRENTON        FAIR      47  28  47 W9        30.22F
MILLVILLE      FAIR      49  31  49 W9        30.24F
ATLANTIC CITY  FAIR      50  30  46 W8        30.23F
WRIGHTSTOWN    FAIR      49  31  49 NW10      30.21F
TOMS RIVER     FAIR      48  30  49 NW9       30.23F
BELMAR         FAIR      48  28  46 NW13      30.22F
$$

PAZ047>061-062-071-261900-
EASTERN PENNSYLVANIA

CITY           SKY/WX    TMP DP  RH WIND       PRES   REMARKS
PHILADELPHIA   FAIR      48  30  49 SW10      30.25F
ALLENTOWN      FAIR      48  29  47 SW7       30.22F
SCRANTON       FAIR      43  28  55 VRB5      30.20F
$$

CTZ002-004>006-009-010-012-RIZ004-006-007-MAZ004-011-015-261900-
SOUTHERN NEW ENGLAND
 IN CT

CITY           SKY/WX    TMP DP  RH WIND       PRES   REMARKS
BRADLEY INTL   FAIR      49  28  44 W9        30.15F
HARTFORD       FAIR      48  28  46 VRB7      30.17F
DANBURY        FAIR      46  28  49 W6        30.19F
WTRBRY/OXFORD  SUNNY     45  28  53 NW8       30.17
BRIDGEPORT     FAIR      51  30  44 NW9       30.19F
MERIDEN        FAIR      49  28  44 NW12      30.17F
NEW HAVEN      FAIR      51  30  44 VRB5      30.18F
CHESTER        FAIR      46  30  53 N10       30.16F
GROTON         FAIR      49  30  48 NW14      30.16F
WILLIMANTIC    FAIR      47  29  49 W12G21    30.16F

 IN RI

CITY           SKY/WX    TMP DP  RH WIND       PRES   REMARKS
PROVIDENCE     FAIR      49  30  48 NW9       30.14F
BLOCK ISLAND   FAIR      46  34  61 W16       30.16S
WESTERLY       FAIR      50  30  46 NW8       30.16F

 IN MA

CITY           SKY/WX    TMP DP  RH WIND       PRES   REMARKS
BOSTON         FAIR      48  31  51 W15       30.11F
WORCESTER      FAIR      43  28  55 W18       30.11F
WESTFIELD      FAIR      48  28  46 W13       30.15F
PROVINCETOWN   FAIR      48  34  57 W10       30.12F
NANTUCKET      FAIR      49  33  54 SW18      30.14S
$$

ANZ330-335-338-340-345-350-353-355-261900-
COASTAL MARINE OBSERVATIONS


STATION/POSITION TIME  SKY/WX   TEMP    WIND        PRES    VSBY  WAVE
                                AIR SEA DIR/SP/G                  HT/PER
                 (UTC)          (F)     (DEG/KT/KT) (MB)    (MI)  (FT/S)
NY HARB ENTRANCE 1800            44 45  280/ 14/ 17 1023.6          2/ 3
4S FIRE IS       1800               47                N/A           3/ 5
20S FIRE ISLAND  1700            47 49              1024.0          4/ 5
23SW MTP         1700                                 N/A           4/ 6
HUDSON CANYON    1800            46 55  290/ 14/ 17 1023.0          5/ 6
EXECUTION ROCKS  1800            49 42  300/  6/ 10   N/A
WESTERN LI SOUND 1700            45     290/  6/ 10   N/A           1
CENTRAL LI SOUND 1800            44 44  250/ 12/ 14   N/A           1/ 4
EASTERN LI SOUND NOT AVBL
ROBBINS REEF     1800            46                 1021.8
$$


>>>>>>>>>>>>>>>>>>>>>>>>>>>> KEY <<<<<<<<<<<<<<<<<<<<<<<<<<<
>                                                          <
>     SKY/WX - SKY CONDITION/PRESENT WEATHER               <
>     TMP    - TEMPERATURE IN FAHRENHEIT                   <
>     DP     - DEWPOINT IN FAHRENHEIT                      <
>     RH     - RELATIVE HUMIDITY IN PERCENT                <
>     WIND   - DIRECTION AND SPEED IN MPH                  <
>     PRES   - MEAN SEA LEVEL PRESSURE IN INCHES OF HG     <
>     WCI    - WIND CHILL INDEX                            <
>     VSB    - VISIBILITY IN MILES                         <
>     HX     - HEAT INDEX                                  <
>     TC     - TEMPERATURE IN CELSIUS                      <
>     VRB    - VARIABLE WIND DIRECTION                     <
>                                                          <
>>>>>>>>>>>>>>>>>>>>>>>>>>>> KEY <<<<<<<<<<<<<<<<<<<<<<<<<<<




USA.gov is the U.S. government's official web portal to all federal, state and local government web resources and services.